[[{"header":{"parameterUnit":"m.s-1","parameterCategory":1,"la1":30.2991,"la2":30.254,"lo1":-89.0895,"lo2":-89.0444,"dy":0.0017,"dx":0.0017,"nx":28,"ny":28,"refTime":"2024-10-21T21:00:00:Z","depth":0,"parameterNumber":2,"parameterNumberName":"U-component_of_WINDS"},"data":[0,0,0,0,0,0,0,0,0,0,0,0,0,0,0,0,0,0,0,0,0,0,0,0,0,0,0,0,0,0,0,0,0,0,0,0,0,0,0,0,0,0,0,0,0,0,0,0,0,0,0,0,0,0,0,0,0,0,-0.0113,-0.0112,0,-0.0052,-0.0052,-0.0051,0.0016,0.0017,0.0017,0.0018,0.008,0.0081,0.0081,0,0,0,0,0,0,0,0,0,0,0,0,0,-0.0173,-0.0172,-0.0113,-0.0112,-0.0111,-0.0052,-0.0051,-0.0051,0.0015,0.0017,0.0018,0.0019,0.008,0.008,0.0081,0,0,0,0,0,0,0,0,0,0,0,0,0,-0.0133,-0.0172,-0.0113,-0.0071,-0.0067,-0.0052,-0.0051,-0.005,0.0015,0.0017,0.0018,0.0019,0.0079,0.008,0.0081,0.0059,0,0,0.0085,0.0085,0,0,0,0,0,0,0,0,-0.0136,-0.0131,-0.0078,-0.0074,-0.0069,-0.0024,-0.005,-0.0014,0.0015,-0.0016,0.0018,0.002,0.0044,0.0048,0.0056,0.0062,0.0065,0.0085,0.0086,0.0086,0.0086,0,0,0,0,0,0,0,-0.0139,-0.0133,-0.0089,-0.0077,-0.0072,-0.0056,-0.0049,-0.0043,0.0005,-0.0013,-0.0008,-0.0002,0.0047,0.0055,0.0058,0.0066,0.0085,0.0086,0.0087,0.0087,0.0054,0.0052,0,0,0,0,0,0,-0.0147,-0.0136,-0.0091,-0.0087,-0.01,-0.0056,-0.0048,-0.004,0.0005,0.0014,-0.0003,0.0001,0.0052,0.0057,0.0061,0.0035,0.0086,0.0087,0.0088,0.0055,0.0053,0.0052,0,0,0,0,0,0,-0.0149,-0.0144,-0.0093,-0.011,-0.0103,-0.0057,-0.0048,-0.004,-0.0031,0.0013,0.0022,-0.0004,0.0054,0.0059,0.0059,0.0038,0.0088,0.0089,0.0057,0.0055,0.0052,-0.0015,0,0,0,0,0,0,-0.0151,-0.0145,-0.0152,-0.0111,-0.0102,-0.0096,-0.005,-0.004,-0.003,-0.0024,0.0015,0.0023,0.0055,0.0056,0.006,0.0041,0.0089,0.0059,0.0056,0.0053,-0.0011,-0.0019,-0.0026,0,0,0,0,0,-0.0153,-0.0173,-0.0153,-0.0148,-0.011,-0.0097,-0.0092,-0.0054,-0.0031,-0.0039,-0.0011,0.0021,0.004,0.0056,0.006,0.0041,0.006,0.0057,0.0053,-0.0007,-0.0017,-0.0026,0,0,0,0,0,0,-0.0218,-0.0167,-0.0144,-0.0151,-0.0129,-0.0086,-0.0095,-0.0066,-0.005,-0.0045,0.0002,0.001,0.0003,0.0023,0.0039,0.0021,0.0055,0.0052,0.0008,-0.0002,-0.001,-0.0016,0.009,0,0,0,0,0,-0.0233,-0.0226,-0.0182,-0.0192,-0.0183,-0.0141,-0.0133,-0.0106,-0.0082,-0.0072,-0.0044,-0.0022,-0.0011,-0.0005,0.0008,-0.0007,0.0001,-0.0018,-0.0026,-0.0032,-0.0036,-0.0046,-0.0054,0.004,0.004,0.004,0,0,-0.0264,-0.0235,-0.0234,-0.0205,-0.0184,-0.018,-0.0133,-0.0129,-0.0126,-0.0071,-0.0071,-0.005,-0.0022,-0.0031,-0.0033,-0.0014,-0.006,-0.0037,-0.0042,-0.0043,-0.005,-0.0059,-0.0067,0.0038,0.0038,0.0039,0,0,-0.0319,-0.0295,-0.0303,-0.0284,-0.0254,-0.0226,-0.0228,-0.019,-0.0174,-0.0173,-0.0132,-0.0128,-0.0109,-0.0092,-0.0081,-0.0131,-0.0102,-0.0128,-0.0171,-0.018,-0.0188,-0.0194,-0.0215,-0.0223,-0.0131,-0.0132,-0.0132,0,-0.0362,-0.0353,-0.031,-0.031,-0.03,-0.025,-0.0258,-0.0242,-0.021,-0.0204,-0.0183,-0.0161,-0.0139,-0.0144,-0.0157,-0.0148,-0.0151,-0.0133,-0.019,-0.0196,-0.0201,-0.0221,-0.0229,-0.0135,-0.0135,-0.0135,-0.0134,0,-0.0408,-0.0403,-0.0412,-0.0384,-0.0374,-0.0378,-0.0337,-0.0332,-0.0306,-0.0281,-0.0282,-0.0253,-0.0235,-0.0234,-0.0207,-0.0236,-0.0226,-0.0198,-0.0163,-0.0215,-0.0233,-0.024,-0.0141,-0.0139,-0.0138,-0.0137,0,0,-0.0503,-0.0452,-0.0456,-0.0444,-0.0408,-0.0403,-0.0405,-0.0388,-0.0387,-0.0366,-0.0368,-0.0355,-0.033,-0.0317,-0.0288,-0.0296,-0.0342,-0.0268,-0.0266,-0.0286,-0.0376,-0.04,-0.0409,-0.0321,-0.0322,-0.0323,-0.0379,0,-0.0554,-0.0556,-0.0519,-0.0531,-0.0527,-0.048,-0.0482,-0.0461,-0.0438,-0.0432,-0.0405,-0.0398,-0.0364,-0.0356,-0.0362,-0.0336,-0.036,-0.033,-0.0326,-0.0326,-0.0337,-0.0417,-0.0442,-0.0496,-0.0386,-0.0387,-0.0388,0,-0.0614,-0.0598,-0.0611,-0.0577,-0.0573,-0.0576,-0.0559,-0.0553,-0.0528,-0.0511,-0.0498,-0.0466,-0.0467,-0.0432,-0.0435,-0.0416,-0.0411,-0.0398,-0.0399,-0.04,-0.0362,-0.0423,-0.0512,-0.0522,-0.0397,-0.0397,-0.0396,0,-0.0687,-0.0668,-0.0674,-0.0664,-0.0623,-0.0627,-0.061,-0.0584,-0.0577,-0.0562,-0.0557,-0.0542,-0.0534,-0.0524,-0.0489,-0.0466,-0.0497,-0.0458,-0.0485,-0.0486,-0.0495,-0.0496,-0.0588,-0.0487,-0.0487,-0.0487,-0.0487,0,-0.075,-0.076,-0.0706,-0.071,-0.0721,-0.0678,-0.069,-0.0668,-0.0646,-0.0646,-0.0603,-0.0604,-0.0556,-0.0553,-0.0525,-0.0533,-0.0529,-0.0517,-0.051,-0.0523,-0.0525,-0.0521,-0.0518,-0.0489,-0.0489,-0.0488,-0.0488,0,-0.0833,-0.0797,-0.0801,-0.0762,-0.0753,-0.0763,-0.0731,-0.0733,-0.0707,-0.0708,-0.0706,-0.0665,-0.0659,-0.0622,-0.0606,-0.0588,-0.0607,-0.0591,-0.0616,-0.0612,-0.0642,-0.0641,-0.0738,-0.075,-0.0639,-0.064,-0.0641,0,-0.0878,-0.0885,-0.0847,-0.0844,-0.083,-0.0825,-0.0818,-0.0776,-0.077,-0.0744,-0.0751,-0.0741,-0.0731,-0.0723,-0.0693,-0.0681,-0.0666,-0.0701,-0.0665,-0.0678,-0.0671,-0.0673,-0.0675,-0.071,-0.0711,-0.0713,-0.0713,0,-0.0961,-0.0943,-0.0934,-0.092,-0.0913,-0.09,-0.0884,-0.0884,-0.0838,-0.0834,-0.0827,-0.0819,-0.0804,-0.0796,-0.0779,-0.0763,-0.0732,-0.0725,-0.0731,-0.0746,-0.0762,-0.0757,-0.0641,-0.0724,-0.0723,-0.0722,-0.0721,-0.0721,-0.1028,-0.1034,-0.1009,-0.1001,-0.0985,-0.0972,-0.0973,-0.0948,-0.0941,-0.0926,-0.0901,-0.0899,-0.0876,-0.0851,-0.0837,-0.0835,-0.0817,-0.0825,-0.0828,-0.0831,-0.0839,-0.0759,-0.0832,-0.0831,-0.0831,-0.0831,-0.0831,0,-0.1113,-0.1095,-0.1088,-0.1068,-0.1062,-0.1032,-0.1013,-0.1012,-0.101,-0.0991,-0.0982,-0.0976,-0.0968,-0.0937,-0.0926,-0.0931,-0.0917,-0.093,-0.0931,-0.0928,-0.0854,-0.0852,-0.0942,-0.0942,-0.0942,-0.0942,-0.0942,-0.0942,-0.1156,-0.1165,-0.1144,-0.1145,-0.1126,-0.1124,-0.1116,-0.1105,-0.109,-0.1084,-0.1078,-0.1058,-0.1035,-0.1022,-0.1014,-0.1006,-0.1005,-0.1024,-0.1011,-0.0944,-0.0933,-0.0923,-0.0921,-0.1023,-0.1024,-0.1086,-0.1086,-0.1087]},{"header":{"parameterUnit":"m.s-1","parameterCategory":1,"la1":30.2991,"la2":30.254,"lo1":-89.0895,"lo2":-89.0444,"dy":0.0017,"dx":0.0017,"nx":28,"ny":28,"refTime":"2024-10-21T21:00:00:Z","depth":0,"parameterNumber":3,"parameterNumberName":"V-component_of_WINDS"},"data":[0,0,0,0,0,0,0,0,0,0,0,0,0,0,0,0,0,0,0,0,0,0,0,0,0,0,0,0,0,0,0,0,0,0,0,0,0,0,0,0,0,0,0,0,0,0,0,0,0,0,0,0,0,0,0,0,0,0,1.2365,1.2365,0,1.232,1.2319,1.2319,1.2312,1.2313,1.2313,1.2313,1.2262,1.226,1.2259,0,0,0,0,0,0,0,0,0,0,0,0,0,1.2441,1.244,1.2365,1.2365,1.2364,1.232,1.2319,1.2319,1.2312,1.2313,1.2313,1.2314,1.2263,1.2261,1.2259,0,0,0,0,0,0,0,0,0,0,0,0,0,1.2403,1.2439,1.2365,1.2356,1.2354,1.232,1.2319,1.2319,1.2312,1.2313,1.2313,1.2314,1.2263,1.2261,1.2258,1.2229,0,0,1.225,1.2249,0,0,0,0,0,0,0,0,1.2405,1.24,1.2358,1.2356,1.2355,1.2323,1.2327,1.2288,1.2312,1.2328,1.2313,1.2314,1.2281,1.2277,1.2267,1.2227,1.2225,1.225,1.2248,1.2247,1.2246,0,0,0,0,0,0,0,1.2408,1.2402,1.2347,1.2357,1.2355,1.2352,1.2347,1.232,1.2301,1.2327,1.2326,1.2321,1.2281,1.227,1.2266,1.2224,1.225,1.2248,1.2246,1.2245,1.2155,1.2154,0,0,0,0,0,0,1.2413,1.2404,1.2349,1.2346,1.2382,1.235,1.2345,1.2332,1.2302,1.2298,1.2321,1.2321,1.2274,1.2269,1.2264,1.2227,1.2247,1.2245,1.2243,1.2156,1.2155,1.2154,0,0,0,0,0,0,1.2415,1.2408,1.235,1.2375,1.2367,1.2348,1.2334,1.2331,1.232,1.2297,1.2293,1.2313,1.2274,1.2268,1.2238,1.2225,1.2244,1.2241,1.2157,1.2155,1.2154,1.2152,0,0,0,0,0,0,1.2417,1.2409,1.2399,1.2375,1.2366,1.2326,1.2333,1.233,1.2316,1.2316,1.2289,1.2285,1.2274,1.2242,1.2235,1.2221,1.2239,1.2158,1.2156,1.2155,1.2153,1.2151,1.2149,0,0,0,0,0,1.242,1.2399,1.2398,1.2392,1.2354,1.2326,1.2321,1.231,1.2315,1.2304,1.2289,1.2286,1.2228,1.2239,1.2231,1.2217,1.2158,1.2157,1.2155,1.2154,1.2151,1.2149,0,0,0,0,0,0,1.2421,1.2396,1.2395,1.2366,1.2348,1.2325,1.231,1.2307,1.2286,1.2287,1.2273,1.2267,1.2237,1.2224,1.2237,1.2186,1.2193,1.219,1.2195,1.2193,1.2191,1.2193,1.2237,0,0,0,0,0,1.2418,1.2399,1.2378,1.2355,1.2346,1.233,1.2317,1.2311,1.2291,1.2283,1.2266,1.2245,1.2222,1.2207,1.2184,1.2152,1.2144,1.2138,1.2136,1.2134,1.2131,1.2111,1.2107,1.2148,1.2148,1.2148,0,0,1.2411,1.2396,1.2384,1.2355,1.234,1.2319,1.2323,1.2301,1.2285,1.2279,1.2249,1.2236,1.2212,1.218,1.2165,1.2168,1.2118,1.2132,1.2131,1.2128,1.2108,1.2104,1.2101,1.2147,1.2147,1.2147,0,0,1.2389,1.2376,1.2354,1.234,1.2318,1.2307,1.2302,1.2279,1.227,1.2241,1.2235,1.2215,1.2175,1.2158,1.2144,1.2114,1.211,1.2107,1.2095,1.2076,1.2073,1.2069,1.2057,1.2053,1.2104,1.2104,1.2104,0,1.2383,1.2352,1.2343,1.2321,1.2307,1.2303,1.2279,1.2265,1.2236,1.2226,1.223,1.218,1.2164,1.2127,1.212,1.2109,1.2101,1.2109,1.2074,1.2071,1.2068,1.2055,1.2051,1.2104,1.2104,1.2104,1.2104,0,1.2345,1.2324,1.2309,1.2283,1.2267,1.2245,1.2231,1.2216,1.2211,1.2199,1.2168,1.2148,1.2121,1.2112,1.2106,1.2073,1.2076,1.2077,1.2084,1.2064,1.2052,1.2047,1.2103,1.2103,1.2103,1.2104,0,0,1.2321,1.229,1.2285,1.2272,1.2247,1.223,1.2206,1.2181,1.2167,1.2148,1.2126,1.2093,1.2094,1.2078,1.207,1.2053,1.2028,1.2057,1.2056,1.205,1.1989,1.1986,1.1981,1.2026,1.2025,1.2024,1.199,0,1.2294,1.2254,1.2244,1.2209,1.2188,1.2183,1.2162,1.2143,1.2132,1.2111,1.2097,1.2073,1.2078,1.2068,1.2051,1.2035,1.2015,1.2037,1.2003,1.2002,1.2008,1.1975,1.1973,1.1941,1.1986,1.1985,1.1984,0,1.2257,1.2237,1.22,1.2177,1.2167,1.2149,1.2124,1.2105,1.2083,1.2076,1.2058,1.2052,1.2025,1.2034,1.1996,1.2011,1.1997,1.1987,1.1985,1.198,1.1991,1.1967,1.1931,1.1926,1.1977,1.1978,1.1978,0,1.224,1.2205,1.2177,1.2167,1.214,1.2126,1.2114,1.2093,1.2078,1.2056,1.2046,1.202,1.2006,1.1986,1.1971,1.198,1.1933,1.1942,1.1924,1.1924,1.1913,1.1913,1.1872,1.1907,1.1907,1.1907,1.1907,0,1.221,1.2187,1.2169,1.2152,1.2125,1.2115,1.2088,1.2075,1.2056,1.2035,1.2029,1.2009,1.1993,1.197,1.1959,1.1927,1.1921,1.1913,1.1909,1.1912,1.1913,1.1901,1.1902,1.1906,1.1906,1.1907,1.1907,0,1.2187,1.2175,1.2144,1.2121,1.2114,1.2095,1.2075,1.2057,1.2045,1.2018,1.2011,1.1992,1.1965,1.1949,1.1915,1.1907,1.1871,1.187,1.1879,1.1877,1.1859,1.186,1.1807,1.1798,1.1841,1.1841,1.184,0,1.2167,1.2149,1.2124,1.211,1.2098,1.2076,1.2061,1.2049,1.2033,1.2006,1.1991,1.1964,1.1941,1.1897,1.1879,1.1851,1.1848,1.1832,1.1844,1.1847,1.1845,1.1846,1.1843,1.1829,1.1828,1.1828,1.1828,0,1.2133,1.2128,1.2107,1.2083,1.2065,1.2046,1.2027,1.2015,1.2,1.1982,1.1954,1.1937,1.1902,1.1873,1.1845,1.183,1.1825,1.1825,1.1818,1.182,1.1824,1.1819,1.1871,1.1825,1.1825,1.1826,1.1826,1.1826,1.2109,1.2092,1.2072,1.2048,1.2033,1.2015,1.1996,1.1983,1.196,1.1931,1.1926,1.1896,1.1873,1.1834,1.1819,1.1794,1.1797,1.1789,1.1786,1.1784,1.1782,1.183,1.1789,1.1789,1.1789,1.1789,1.1789,0,1.2073,1.206,1.2038,1.2012,1.1992,1.1992,1.197,1.1953,1.1928,1.1908,1.1886,1.1853,1.1826,1.1806,1.1777,1.1761,1.1758,1.1754,1.1754,1.175,1.1782,1.1789,1.1757,1.1757,1.1757,1.1757,1.1757,1.1757,1.2052,1.2023,1.2015,1.1977,1.1964,1.1936,1.1923,1.1905,1.1889,1.1853,1.1831,1.1819,1.1798,1.1768,1.1742,1.1736,1.1725,1.172,1.1714,1.1744,1.1748,1.1751,1.1758,1.1719,1.1719,1.1683,1.1683,1.1683]}]]